Time,TemperatureF,DewpointF,PressureIn,WindDirection,WindDirectionDegrees,WindSpeedMPH,WindSpeedGustMPH,Humidity,HourlyPrecipIn,Conditions,Clouds,dailyrainin,SoftwareType,DateUTC
2013-03-06 00:00:00,18.0,12.0,-100.00,North,-999,-999.0,-999.0,77,-99.99,,,0.01,,2013-03-06 07:00:00,
2013-03-06 00:52:00,18.0,12.0,-100.00,North,-999,-999.0,-999.0,77,-99.99,,,0.01,,2013-03-06 07:52:00,
2013-03-06 02:00:00,23.0,17.0,-100.00,North,-999,-999.0,-999.0,77,-99.99,,,0.00,,2013-03-06 09:00:00,
2013-03-06 02:52:00,23.0,17.0,-100.00,North,-999,-999.0,-999.0,77,-99.99,,,0.00,,2013-03-06 09:52:00,
2013-03-06 03:00:00,24.0,18.0,-100.00,North,-999,-999.0,-999.0,77,-99.99,,,0.00,,2013-03-06 10:00:00,
2013-03-06 03:52:00,24.0,18.0,-100.00,North,-999,-999.0,-999.0,77,-99.99,,,0.00,,2013-03-06 10:52:00,
2013-03-06 04:00:00,21.0,15.0,-100.00,North,-999,-999.0,-999.0,77,-99.99,,,0.00,,2013-03-06 11:00:00,
2013-03-06 04:52:00,21.0,15.0,-100.00,North,-999,-999.0,-999.0,77,-99.99,,,0.00,,2013-03-06 11:52:00,
2013-03-06 05:00:00,19.0,13.0,-100.00,North,-999,-999.0,-999.0,77,-99.99,,,0.00,,2013-03-06 12:00:00,
2013-03-06 05:53:00,19.0,13.0,-100.00,North,-999,-999.0,-999.0,77,-99.99,,,0.00,,2013-03-06 12:53:00,
2013-03-06 06:00:00,18.0,12.0,-100.00,North,-999,-999.0,-999.0,77,-99.99,,,0.00,,2013-03-06 13:00:00,
2013-03-06 06:52:00,18.0,12.0,-100.00,North,-999,-999.0,-999.0,77,-99.99,,,0.00,,2013-03-06 13:52:00,
2013-03-06 07:00:00,19.0,13.0,-100.00,North,-999,-999.0,-999.0,77,-99.99,,,0.00,,2013-03-06 14:00:00,
2013-03-06 07:52:00,19.0,13.0,-100.00,North,-999,-999.0,-999.0,77,-99.99,,,0.00,,2013-03-06 14:52:00,
2013-03-06 08:00:00,28.0,22.0,-100.00,North,-999,-999.0,-999.0,77,-99.99,,,0.00,,2013-03-06 15:00:00,
2013-03-06 08:52:00,28.0,22.0,-100.00,North,-999,-999.0,-999.0,77,-99.99,,,0.00,,2013-03-06 15:52:00,
2013-03-06 09:00:00,37.0,30.0,-100.00,North,-999,-999.0,-999.0,77,-99.99,,,0.00,,2013-03-06 16:00:00,
2013-03-06 09:52:00,37.0,30.0,-100.00,North,-999,-999.0,-999.0,77,-99.99,,,0.00,,2013-03-06 16:52:00,
2013-03-06 10:00:00,38.0,31.0,-100.00,North,-999,-999.0,-999.0,77,-99.99,,,-99.99,,2013-03-06 17:00:00,
2013-03-06 10:53:00,38.0,31.0,-100.00,North,-999,-999.0,-999.0,77,-99.99,,,-99.99,,2013-03-06 17:53:00,
2013-03-06 11:00:00,42.0,35.0,-100.00,North,-999,-999.0,-999.0,77,-99.99,,,0.00,,2013-03-06 18:00:00,
2013-03-06 11:53:00,42.0,35.0,-100.00,North,-999,-999.0,-999.0,77,-99.99,,,0.00,,2013-03-06 18:53:00,
2013-03-06 12:00:00,45.0,38.0,-100.00,North,-999,-999.0,-999.0,77,-99.99,,,0.00,,2013-03-06 19:00:00,
2013-03-06 12:53:00,45.0,38.0,-100.00,North,-999,-999.0,-999.0,77,-99.99,,,0.00,,2013-03-06 19:53:00,
2013-03-06 13:00:00,48.0,41.0,-100.00,North,-999,-999.0,-999.0,77,-99.99,,,0.00,,2013-03-06 20:00:00,
2013-03-06 13:53:00,48.0,41.0,-100.00,North,-999,-999.0,-999.0,77,-99.99,,,0.00,,2013-03-06 20:53:00,
2013-03-06 14:00:00,42.0,35.0,-100.00,North,-999,-999.0,-999.0,77,-99.99,,,0.00,,2013-03-06 21:00:00,
2013-03-06 15:00:00,46.0,39.0,-100.00,North,-999,-999.0,-999.0,77,-99.99,,,0.00,,2013-03-06 22:00:00,
2013-03-06 15:52:00,46.0,39.0,-100.00,North,-999,-999.0,-999.0,77,-99.99,,,0.00,,2013-03-06 22:52:00,
2013-03-06 16:00:00,41.0,35.0,-100.00,North,-999,-999.0,-999.0,77,-99.99,,,0.00,,2013-03-06 23:00:00,
2013-03-06 16:52:00,41.0,35.0,-100.00,North,-999,-999.0,-999.0,77,-99.99,,,0.00,,2013-03-06 23:52:00,
2013-03-06 17:00:00,39.0,-99.9,-100.00,North,-999,-999.0,-999.0,-999,-99.99,,,0.00,,2013-03-07 00:00:00,
2013-03-06 17:52:00,39.0,-99.9,-100.00,North,-999,-999.0,-999.0,-999,-99.99,,,0.00,,2013-03-07 00:52:00,
2013-03-06 18:00:00,35.0,28.0,-100.00,North,-999,-999.0,-999.0,77,-99.99,,,0.00,,2013-03-07 01:00:00,
2013-03-06 18:52:00,35.0,28.0,-100.00,North,-999,-999.0,-999.0,77,-99.99,,,0.00,,2013-03-07 01:52:00,
2013-03-06 20:00:00,33.0,26.0,-100.00,North,-999,-999.0,-999.0,77,-99.99,,,0.00,,2013-03-07 03:00:00,
2013-03-06 20:52:00,33.0,26.0,-100.00,North,-999,-999.0,-999.0,77,-99.99,,,0.00,,2013-03-07 03:52:00,
2013-03-06 21:00:00,31.0,25.0,-100.00,North,-999,-999.0,-999.0,77,-99.99,,,0.00,,2013-03-07 04:00:00,
2013-03-06 21:52:00,31.0,25.0,-100.00,North,-999,-999.0,-999.0,77,-99.99,,,0.00,,2013-03-07 04:52:00,
2013-03-06 22:00:00,32.0,25.0,-100.00,North,-999,-999.0,-999.0,77,-99.99,,,0.00,,2013-03-07 05:00:00,
2013-03-06 22:52:00,32.0,25.0,-100.00,North,-999,-999.0,-999.0,77,-99.99,,,0.00,,2013-03-07 05:52:00,
2013-03-06 23:00:00,32.0,26.0,-100.00,North,-999,-999.0,-999.0,77,-99.99,,,0.00,,2013-03-07 06:00:00,
2013-03-06 23:52:00,32.0,26.0,-100.00,North,-999,-999.0,-999.0,77,-99.99,,,0.00,,2013-03-07 06:52:00,